Aviation WX

[Source: ADDS]
METAR
KFKL 240256Z AUTO 14008KT 10SM CLR 14/04 A3023 RMK AO2 SLP237 T01440039 50003 =
TAF
KFKL 232320Z 2400/2424 15010KT P6SM BKN120 FM241300 12012G25KT P6SM -RA OVC060 FM241600 13012G22KT 5SM -RA OVC015 =

Fuel Services

We have Avgas 100LL and Jet A premixed w/additive . Jet A can be delivered single point, or over the wing.  Quick Turn Around fueling is available, and we can do Hot Fueling of turbine helicopters by prior arrangement. 

Full service fueling is available during attended hours, or self serve after hours. 

If you would rather not pump the fuel yourself, after hours call out service is available at:

Aidan Stahlman 814-648-1626

 

Services

If you need fuel or services after hours, you may use our self-service fuel system, or we will arrange to have someone meet you.

Need a rental car? We can have one waiting for you when you arrive. If you need to stay
overnight, we have a heated hangar available, and there are several motels with pickup service within 4 miles of the airport. Find out who we can service you with by checking out our Links
.


  Fuel Availablility:
Attended hours or 
24 hours by request

Fuel Prices: Please check current  fuel prices at: http://www.airnav.com/airport/KAXQ/A



EPIC-Logo

Flight Training

Aircraft Rental

Hangars

Laser Grade FAA/FCC Computer Testing Center